Theta_e
308 308 308 308 308 309 309 310 310 308 309 312 314 318 313 311 313 312 312 303 304 305 306 308 308 311 312 314 314 310 315 316 318 319 321 321 325 321 322 324 328 329 328 330 333
306 306 307 307 308 308 309 309 309 309 308 311 313 315 314 311 313 312 304 302 302 308 308 307 308 313 312 314 314 315 314 315 315 315 318 322 323 323 327 329 331 332 330 331 333
304 305 306 306 307 307 306 308 308 309 308 308 311 315 314 311 310 307 304 303 304 306 307 307 313 313 312 313 314 312 315 312 314 314 319 321 323 323 326 330 327 331 331 330 331
302 302 302 304 305 307 307 307 307 307 309 308 309 314 313 312 308 306 309 307 305 306 305 308 314 315 313 313 313 314 313 311 312 317 317 320 321 325 325 327 324 326 331 330 330
303 302 301 301 304 305 307 307 306 306 308 309 309 311 315 311 310 309 309 307 311 308 308 308 314 314 314 312 313 316 315 314 313 316 315 316 319 322 322 322 324 330 332 331 331
304 302 303 302 302 304 306 306 307 305 306 308 309 311 312 311 308 308 312 310 308 309 308 309 310 313 314 313 312 312 314 316 315 315 315 316 314 317 319 325 330 333 333 332 331
305 304 303 303 302 302 306 306 306 307 305 308 309 311 311 311 309 309 311 311 311 308 307 308 310 314 312 313 312 314 316 315 315 316 316 315 315 315 316 328 331 332 332 332 331
304 304 304 303 303 301 303 306 306 305 307 308 309 309 310 312 310 309 311 312 309 309 310 308 312 314 313 312 314 315 315 316 314 315 316 314 311 310 312 325 330 330 330 331 331
303 303 303 304 303 302 301 303 305 304 306 307 308 308 308 312 312 309 309 311 312 312 312 311 316 314 315 314 315 315 314 315 315 314 316 315 315 312 310 316 323 327 327 328 329
303 303 303 304 304 303 302 298 303 305 304 307 308 307 307 313 313 311 311 310 311 312 312 317 315 314 314 312 314 315 313 313 314 312 316 316 315 313 311 309 310 311 316 322 325
303 303 303 304 304 303 300 303 301 303 303 307 308 307 308 311 312 313 311 311 312 309 310 315 314 313 311 312 312 312 313 312 311 310 317 316 315 314 314 312 311 308 306 308 310
302 302 302 302 303 301 301 301 303 303 305 302 306 309 308 307 314 312 311 312 313 310 311 314 311 310 313 314 314 314 312 310 310 311 313 311 310 309 311 312 312 311 309 307 306
302 302 302 303 303 299 302 301 303 303 305 304 307 309 309 307 311 313 310 310 312 312 311 309 307 308 313 316 316 314 312 310 311 312 311 311 308 309 308 308 308 310 311 310 309
302 301 303 302 298 297 300 301 303 303 303 302 307 309 307 308 310 312 309 310 312 313 308 308 307 310 309 313 314 316 312 311 310 310 312 308 307 305 304 304 305 305 306 309 308
302 301 301 302 300 296 298 301 303 301 296 300 308 307 308 308 309 313 310 312 312 313 312 311 308 310 310 308 312 311 310 311 310 310 311 310 308 306 304 306 305 303 303 305 305
300 299 301 301 299 298 298 302 301 294 297 305 309 309 310 309 310 310 311 311 312 312 312 312 306 307 309 308 311 309 309 309 309 310 313 309 309 308 307 306 306 304 303 301 300
299 300 302 301 298 299 299 300 291 290 297 300 308 308 309 311 310 312 311 312 313 315 316 311 311 307 306 309 309 309 310 310 311 306 311 303 309 311 307 304 303 303 301 300 301
301 302 301 301 300 299 300 290 286 284 295 304 305 306 308 310 311 312 313 313 313 313 314 316 317 308 305 308 311 309 309 309 310 310 310 304 310 307 304 302 301 302 301 301 304
302 301 300 300 300 301 292 286 287 288 300 302 302 304 307 310 312 311 312 313 312 313 314 314 314 308 306 306 309 311 312 307 305 293 302 305 303 301 301 302 302 302 302 302 303
300 298 299 299 301 299 289 293 287 296 302 303 298 305 301 307 310 311 308 310 312 312 310 312 314 308 308 309 310 310 308 311 308 300 302 301 301 302 302 302 301 303 303 303 302
298 290 299 298 298 289 286 283 288 297 301 301 303 304 305 305 305 309 310 310 309 311 311 311 312 308 308 309 309 310 310 309 309 303 304 300 299 296 300 301 299 300 301 302 302
294 288 299 299 288 285 287 283 297 297 299 299 303 304 306 306 306 306 309 309 308 310 312 311 311 310 310 308 306 308 310 310 312 310 304 302 301 298 296 297 297 297 299 301 302
294 290 297 297 286 280 282 284 292 295 297 299 299 302 304 307 306 307 306 303 307 309 310 310 312 309 311 309 308 309 309 311 308 306 307 306 304 299 298 297 298 299 299 299 302
288 289 289 296 294 292 289 283 290 295 298 300 301 300 302 304 304 302 306 307 304 306 306 309 311 313 311 312 308 310 309 310 311 314 310 306 305 302 301 300 298 297 297 299 301
290 286 284 286 293 295 286 285 288 291 294 297 297 300 301 301 302 303 300 303 304 306 305 305 311 310 311 310 309 310 310 309 311 311 313 310 307 303 301 299 299 301 297 299 300
294 293 294 294 287 291 294 286 292 293 295 292 297 297 298 301 301 299 301 301 299 303 305 306 309 307 310 311 312 312 309 310 311 312 312 309 307 301 302 299 300 301 303 303 301
295 293 294 291 294 293 290 290 292 295 295 296 297 298 299 298 299 299 299 298 300 302 303 305 302 305 307 307 310 311 309 309 308 309 310 311 310 306 305 304 304 303 302 302 302
Wind_Speed
16 18 19 20 21 22 21 22 21 26 26 24 25 23 20 19 18 14 10 15 10 21 21 14 9 5 4 2 2 3 3 3 5 6 5 3 5 1 2 6 1 2 4 0 29
17 17 18 18 20 21 21 21 21 20 28 25 26 22 20 15 15 18 22 16 15 9 7 7 3 0 4 1 2 3 4 8 5 5 4 4 4 8 5 4 3 3 4 18 30
17 18 18 19 20 21 21 21 21 20 23 29 28 24 20 12 5 11 18 23 16 13 10 6 5 5 5 5 4 4 6 4 3 3 1 2 3 5 7 4 7 10 9 13 21
17 18 20 21 22 21 22 21 21 21 21 21 28 21 19 13 8 4 10 13 22 17 10 7 3 6 5 8 6 4 6 4 2 1 1 2 1 5 7 6 3 7 15 14 15
16 18 20 21 22 23 21 21 21 21 23 21 24 24 17 4 8 5 10 13 14 17 13 6 5 6 7 6 6 3 2 3 4 2 2 1 3 4 6 2 3 11 14 16 16
15 18 19 21 22 23 23 22 19 21 22 20 22 18 3 9 8 11 12 18 13 15 10 8 6 5 5 4 7 6 5 1 2 3 2 2 2 2 3 4 5 11 14 14 16
15 17 19 21 22 24 23 20 18 18 20 19 14 13 8 13 8 16 14 10 13 11 5 8 4 4 5 4 4 5 5 2 5 2 3 5 7 6 2 3 7 8 8 9 11
16 17 19 20 22 23 25 23 20 20 19 17 14 4 6 12 11 11 11 12 12 10 6 9 4 2 2 2 4 6 3 3 2 8 3 5 8 6 5 6 8 8 6 7 9
16 17 18 19 19 24 25 26 22 21 18 15 10 3 6 9 11 10 9 9 11 7 7 6 3 3 1 7 4 1 5 5 3 7 3 5 5 3 2 7 8 7 7 6 6
16 16 16 17 17 21 27 27 22 17 14 7 2 2 5 5 8 8 7 12 5 4 4 4 3 2 1 4 11 7 5 2 5 4 3 3 10 6 0 5 9 7 7 7 8
15 16 17 17 16 20 23 12 6 4 7 7 4 3 4 8 2 10 9 4 4 4 4 4 4 8 5 3 2 6 5 6 4 3 4 5 6 9 6 5 7 7 8 9 11
14 15 15 15 14 16 13 4 5 3 8 11 13 5 7 12 3 5 11 6 5 5 6 4 6 6 6 4 4 5 4 4 2 3 4 3 8 11 7 7 8 10 9 10 6
13 15 15 14 11 8 7 14 7 8 4 5 5 4 3 3 8 11 12 6 5 6 6 6 2 10 7 5 6 4 4 2 2 4 1 3 6 8 6 5 7 9 10 8 11
12 13 14 9 4 10 3 18 7 7 3 4 3 4 4 5 5 1 14 4 4 8 6 3 3 10 5 6 7 7 7 1 5 4 3 1 5 6 6 8 7 10 9 13 13
10 12 11 6 5 3 12 12 7 2 5 6 1 4 5 6 4 1 4 5 10 9 7 6 7 11 4 6 6 5 6 8 3 2 3 2 4 6 1 6 8 9 13 14 13
10 11 8 5 4 6 14 8 6 5 4 7 5 3 5 6 5 3 2 2 3 6 1 2 1 4 7 3 7 8 7 6 4 3 3 6 5 4 6 6 4 5 4 7 8
11 8 4 4 4 12 10 4 5 4 6 8 4 6 7 2 5 8 2 4 5 6 5 4 2 1 3 6 3 3 7 2 2 1 6 4 5 9 7 7 5 6 7 5 6
8 2 1 3 9 9 3 5 6 4 4 4 7 9 3 2 5 8 6 5 5 1 3 5 4 9 5 6 7 8 10 5 7 4 3 1 7 6 6 9 8 7 7 5 3
4 5 3 7 6 2 5 5 6 6 4 6 10 4 3 4 1 2 6 6 7 6 4 5 4 2 2 3 9 6 6 4 6 3 2 4 7 8 9 10 6 7 5 5 3
2 2 4 5 3 2 4 3 3 3 4 2 1 3 4 9 4 5 5 4 6 11 3 2 1 1 3 3 4 6 8 3 1 4 4 4 5 5 5 6 5 6 5 4 3
2 3 3 3 3 4 3 6 4 4 3 2 4 5 4 3 1 5 6 2 3 7 10 3 1 3 5 9 14 4 7 4 4 4 5 1 6 7 7 3 7 7 6 5 4
2 2 2 2 3 0 1 4 4 5 3 4 5 6 4 3 3 4 4 2 3 4 5 6 2 4 7 1 4 15 10 13 6 5 2 2 5 4 6 6 7 7 6 1 0
1 1 2 2 2 2 5 4 3 3 3 2 4 2 2 2 3 1 5 6 9 8 7 7 5 1 1 3 4 13 8 15 4 3 6 5 6 3 5 7 3 2 5 4 3
3 2 3 1 1 4 2 4 4 3 6 4 3 4 3 3 1 4 5 3 3 2 6 6 4 7 8 3 4 7 15 16 18 7 11 8 4 4 2 4 4 5 6 4 3
2 3 4 2 3 3 2 3 2 3 3 2 2 1 4 4 4 3 2 4 4 7 5 1 3 7 8 6 4 7 12 15 14 18 12 22 11 8 10 4 4 4 6 5 4
4 3 1 1 1 4 5 4 4 2 3 5 3 3 2 4 4 4 5 1 6 4 1 3 1 6 2 6 7 3 5 17 17 11 10 13 10 6 0 4 6 7 2 2 4
4 2 3 3 3 4 5 6 6 3 6 7 3 2 7 6 4 10 10 6 6 3 2 1 2 3 3 4 2 3 12 15 14 16 21 14 24 5 7 9 9 3 6 6 6
Wind_Direction
329 317 311 308 305 298 293 298 295 290 295 289 280 256 255 255 263 250 227 229 233 252 261 268 287 207 75 355 163 163 84 215 217 162 242 139 180 111 119 122 163 131 152 269 157
346 342 327 316 310 304 297 292 295 300 289 298 290 278 248 244 253 249 241 232 226 228 235 220 243 127 122 161 252 159 149 220 205 202 238 191 191 163 146 139 206 150 57 131 149
348 342 340 334 321 312 298 298 292 289 293 285 309 283 231 217 280 244 238 224 204 211 227 219 166 150 169 148 213 198 182 211 265 243 302 261 195 176 128 234 214 190 155 152 154
349 347 345 338 330 320 307 298 294 302 289 281 300 284 215 176 215 207 175 173 204 207 194 186 153 157 180 181 183 199 218 173 277 247 83 251 139 193 195 215 265 187 158 154 167
339 345 343 339 335 330 313 301 295 309 302 297 287 296 188 202 235 232 164 147 161 181 193 185 163 154 187 190 140 182 142 187 239 234 231 308 258 249 244 290 69 133 154 173 179
325 335 335 338 337 336 325 309 293 305 304 302 291 304 267 232 247 214 171 134 151 169 190 190 201 205 164 204 171 182 164 305 287 261 184 206 237 31 293 129 130 157 174 179 184
312 316 322 330 339 338 334 319 298 300 300 309 282 291 297 229 317 196 182 152 152 165 150 205 202 193 137 143 205 125 118 193 243 213 243 156 278 219 263 149 170 193 189 186 193
310 312 312 319 329 335 333 325 304 299 294 301 293 218 238 251 255 213 183 135 143 156 142 182 200 145 179 128 51 123 114 182 249 159 248 150 257 256 194 163 207 208 211 203 199
329 315 310 313 323 329 328 321 304 296 296 295 308 88 277 305 220 227 171 142 137 153 131 137 170 174 121 130 85 233 196 173 311 208 139 179 258 245 159 180 223 225 224 231 240
328 327 317 314 315 327 326 321 303 297 305 314 106 48 266 295 188 245 184 129 114 128 78 96 73 146 96 180 195 170 135 164 184 207 178 191 249 262 100 184 225 233 241 234 239
334 326 320 316 319 330 334 341 15 17 13 305 282 218 268 317 220 219 220 58 82 98 151 141 127 202 210 123 52 137 139 158 181 181 168 245 255 261 272 252 257 242 234 240 239
333 335 328 325 327 338 6 24 334 315 298 271 261 245 248 298 255 208 191 148 175 162 129 97 202 180 166 224 78 44 133 175 132 112 168 288 268 263 246 236 219 232 236 235 249
330 331 331 325 321 345 358 360 328 325 288 295 228 225 157 52 323 187 182 162 140 135 179 171 225 158 159 175 163 171 152 169 128 85 243 331 288 262 258 235 234 238 233 235 228
326 332 334 328 332 340 357 338 325 325 311 291 358 254 110 80 283 296 197 160 123 175 130 204 153 169 153 191 168 216 157 61 55 71 236 47 275 271 252 258 251 253 237 239 237
344 340 343 349 343 23 321 324 311 298 10 311 265 175 164 141 312 299 330 355 150 147 150 207 167 147 149 187 141 200 155 176 181 154 43 230 281 264 250 274 263 244 238 243 244
329 335 334 327 1 347 340 333 315 44 273 337 320 240 201 171 147 290 115 357 39 109 91 88 139 158 171 145 145 146 88 65 72 107 261 197 204 218 203 202 234 255 265 268 261
320 326 315 330 328 334 330 355 33 104 338 328 347 338 317 135 206 178 241 186 158 157 171 119 192 262 149 100 105 138 128 52 18 10 236 325 188 259 279 255 220 261 285 320 329
312 288 21 327 314 331 348 49 69 247 277 325 338 298 277 186 236 208 200 226 279 25 116 151 206 175 188 170 170 174 172 154 182 202 222 25 234 247 240 288 272 253 258 278 315
103 100 62 360 334 324 65 49 201 208 286 341 335 337 314 237 16 251 222 232 183 227 177 165 257 93 139 128 147 200 211 152 106 42 67 223 291 286 287 279 271 274 287 259 202
53 76 31 358 7 11 72 252 222 242 333 325 66 306 1 7 211 207 197 233 217 191 54 90 240 115 152 116 29 188 149 154 28 135 244 272 279 247 309 282 296 284 270 245 218
358 43 357 78 21 47 142 231 292 299 335 320 293 291 271 312 219 262 214 319 219 190 184 109 76 316 132 205 184 161 191 206 135 158 177 207 257 222 242 280 290 287 273 235 246
74 29 349 354 49 267 99 194 313 285 261 253 273 268 232 206 230 275 242 339 259 137 207 159 153 191 199 265 264 199 204 204 201 199 221 151 270 207 240 280 256 267 292 236 187
86 256 349 301 110 316 313 298 246 306 287 316 282 280 325 302 317 65 342 326 8 172 174 160 208 149 262 343 328 200 191 194 157 101 198 155 253 263 209 62 26 93 57 28 31
89 10 333 4 153 143 244 287 310 267 283 260 257 304 306 296 80 307 357 330 74 11 10 189 207 222 226 124 132 208 204 196 202 209 224 232 244 313 279 98 67 88 100 89 75
63 243 188 229 258 205 92 168 273 334 271 274 324 214 314 303 328 279 297 319 268 193 148 212 277 219 217 222 175 186 219 211 207 212 197 239 249 249 283 192 182 108 124 120 130
142 160 160 217 156 155 205 235 220 255 213 281 217 317 220 250 262 302 352 149 255 348 89 167 260 1 219 186 213 219 204 199 223 232 245 252 262 219 58 224 230 221 163 185 183
142 136 126 235 211 200 215 213 224 170 263 232 270 318 312 263 259 247 260 249 264 226 212 231 156 106 307 39 55 236 212 213 211 206 214 228 243 174 223 226 243 230 189 208 201